{"data":{"norad_id":61057,"epoch":"2026-09-21T17:24:09.488448Z","epoch_age_seconds":86260,"freshness":"FRESH","line1":"1 61057U 24164H   26264.72510982  .00000549  00000+0  93865-5 0  9993","line2":"2 61057  53.1580  65.2454 0000762  94.8526 265.2579 15.69708015116206","mean_motion":15.69708015,"eccentricity":7.62e-5,"inclination_deg":53.158,"raan_deg":65.2454,"arg_perigee_deg":94.8526,"mean_anomaly_deg":265.2579,"bstar":9.3865e-6,"rev_number":11620,"period_min":91.7368062238,"perigee_km":359.21900508533,"apogee_km":360.24585638657,"semimajor_km":6737.8694307359,"source":"CELESTRAK","updated_at":"2026-09-22T09:00:49.332109Z"}}